Location: �perlecques
(50.8057°N, 2.1521°E)
Time: 13:06:30
(UTC+00:00)

STARLINK-1229 - Pass Details

Date: 09 April 2020
Orbit: 378 x 381 km, 53.0° (Epoch: 26 May)

Event Time Altitude Azimuth Distance (km) Brightness Sun altitude
Rises 19:50:40 0° 289° (WNW) 2,263 8.7 -11.6°
Reaches altitude 10° 19:52:48 10° 281° (W) 1,406 7.0 -11.9°
Maximum altitude 19:55:45 37° 212° (SSW) 608 3.9 -12.3°
Enters shadow 19:57:33 19° 153° (SSE) 986 4.4 -12.5°
